(150405) = 1993 FS76 = 2000 EN132

Discovered at Socorro on 2000-03-11 by LINEAR.

Orbit

Orbit type: Main Belt

Note: WebGL enabled browser required.

epoch2023-09-13.0
epoch JD2460200.5
perihelion date2021-11-10.88344
perihelion JD2459529.38344
argument of perihelion (°)236.73889
ascending node (°)352.84750
inclination (°)5.83422
eccentricity0.1538481
perihelion distance (AU)1.9681513
Tisserand w.r.t. Jupiter3.6
ΔV w.r.t. Earth (km/sec)8.9
semimajor axis (AU)2.3260024
mean anomaly (°)186.46038
mean daily motion (°/day)0.27783610
aphelion distance (AU)2.684
period (years)3.55
P-vector [x]-0.64776153
P-vector [y]-0.66080321
P-vector [z]-0.37913601
Q-vector [x]0.76173802
Q-vector [y]-0.57004181
Q-vector [z]-0.30790832
absolute magnitude17.21
phase slope0.15
uncertainty0
referenceMPEC 2023-X304
observations used365
oppositions15
arc length (days)11199
first opposition used1993
last opposition used2023
residual rms (arc-secs)0.77
perturbers coarse indicatorM-v
perturbers precise indicator003Ek
first observation date used1993-04-16.0
last observation date used2023-12-14.0
computer nameMPCLINUX
JD of orbit computation2456937.423794
perihelion JD uncertainty (days)1.4099E-04
argument of perihelion uncertainty (°)4.6387E-05
ascending node uncertainty (°)3.3633E-05
inclination uncertainty (°)6.9727E-06
eccentricity uncertainty 8.4585E-08
perihelion distance uncertainty (AU)2.0155E-07
Minimum Orbit Intersection Distances (in AU)
for orbit epoch: 2460200.5, reference: E2023-XU4
Mercury1.51128
Venus1.25127
Earth0.96477
Mars0.39883
Jupiter2.31999
Saturn6.45208
Uranus16.2318
Neptune27.1841

Observations

372 total observations over interval: 1993 03 21.30174 – 2023 12 14.287323
These data are available for download (format description).

Date (UT) J2000 RA J2000 Dec Magn Location Ref
1993 03 21.30174 13 06 57.98 -10 42 38.8 19.4   809 – European Southern Observatory, La Silla MPC 23632
1993 03 22.29549 13 06 07.23 -10 42 42.2 19.6   809 – European Southern Observatory, La Silla MPC 23632
1993 04 16.57641 12 41 05.57 -10 06 23.4 19.0   413 – Siding Spring Observatory MPS 26640
2000 03 11.37488 11 57 15.48 -00 11 12.8 19.2   704 – Lincoln Laboratory ETS, New Mexico MPS 12464
2000 03 11.38961 11 57 14.60 -00 11 10.1 20.1   704 – Lincoln Laboratory ETS, New Mexico MPS 12464
2000 03 11.40651 11 57 13.51 -00 11 09.4 19.7   704 – Lincoln Laboratory ETS, New Mexico MPS 12464
2000 03 11.41927 11 57 12.72 -00 11 07.8 19.3   704 – Lincoln Laboratory ETS, New Mexico MPS 12464
2000 03 11.43795 11 57 11.52 -00 11 04.8 20.0   704 – Lincoln Laboratory ETS, New Mexico MPS 12464
2000 03 14.26724 11 54 19.40 -00 05 00.6 18.9 R 703 – Catalina Sky Survey MPS 12464
2000 03 14.28310 11 54 18.44 -00 04 59.3 18.8 R 703 – Catalina Sky Survey MPS 12464
2000 03 14.29903 11 54 17.37 -00 04 55.3 18.9 R 703 – Catalina Sky Survey MPS 12464
2000 03 14.31490 11 54 16.29 -00 04 55.9 18.4 R 703 – Catalina Sky Survey MPS 12464
2000 04 03.19091 11 34 08.09 +00 38 41.5 19.7 V 691 – Steward Observatory, Kitt Peak-Spacewatch MPS 12464
2000 04 03.21196 11 34 06.90 +00 38 43.8 19.7 V 691 – Steward Observatory, Kitt Peak-Spacewatch MPS 12464
2000 04 03.23348 11 34 05.70 +00 38 46.0 19.8 V 691 – Steward Observatory, Kitt Peak-Spacewatch MPS 12464
2000 04 05.14314 11 32 26.24 +00 41 49.6 19.4   704 – Lincoln Laboratory ETS, New Mexico MPS 12464
2000 04 05.15768 11 32 25.51 +00 41 52.0 18.9   704 – Lincoln Laboratory ETS, New Mexico MPS 12464
2000 04 05.17221 11 32 24.59 +00 41 51.5 18.8   704 – Lincoln Laboratory ETS, New Mexico MPS 12464
2000 04 05.18675 11 32 23.82 +00 41 54.0 18.8   704 – Lincoln Laboratory ETS, New Mexico MPS 12464
2000 04 06.14698 11 31 35.83 +00 43 17.9 19.0   704 – Lincoln Laboratory ETS, New Mexico MPS 12464
2000 04 06.16140 11 31 35.05 +00 43 17.5 18.8   704 – Lincoln Laboratory ETS, New Mexico MPS 12464
2000 04 06.17538 11 31 34.33 +00 43 20.0 18.7   704 – Lincoln Laboratory ETS, New Mexico MPS 12464
2000 04 10.21324 11 28 28.16 +00 47 59.7 19.0 V 691 – Steward Observatory, Kitt Peak-Spacewatch MPS 12464
2000 04 10.23395 11 28 27.23 +00 47 59.2 19.8 V 691 – Steward Observatory, Kitt Peak-Spacewatch MPS 12464
2000 04 10.25475 11 28 26.28 +00 48 00.3 20.2 V 691 – Steward Observatory, Kitt Peak-Spacewatch MPS 12464
2001 09 20.25543 23 57 38.10 +00 46 58.4 19.4   704 – Lincoln Laboratory ETS, New Mexico MPS 35612
2001 09 20.26959 23 57 37.23 +00 46 54.9 19.9   704 – Lincoln Laboratory ETS, New Mexico MPS 35612
2001 09 20.28374 23 57 36.28 +00 46 51.3 20.4   704 – Lincoln Laboratory ETS, New Mexico MPS 35612
2001 09 20.31202 23 57 34.49 +00 46 44.2 20.1   704 – Lincoln Laboratory ETS, New Mexico MPS 35612
2001 11 18.174600 23 27 03.520 -00 52 06.19 21.82 V 645 – Apache Point-Sloan Digital Sky Survey MPS 79661
2001 11 18.178072 23 27 03.563 -00 52 05.60 22.83   645 – Apache Point-Sloan Digital Sky Survey MPS 79661
2005 10 27.48292 02 52 38.61 +23 49 58.5 21.0 V 691 – Steward Observatory, Kitt Peak-Spacewatch MPS 145789
2005 10 27.50032 02 52 37.48 +23 49 55.9 20.7 V 691 – Steward Observatory, Kitt Peak-Spacewatch MPS 145789
2005 10 27.51757 02 52 36.35 +23 49 52.7 20.7 V 691 – Steward Observatory, Kitt Peak-Spacewatch MPS 145789
2005 10 31.22655 02 48 36.12 +23 40 07.9 21.0 V 691 – Steward Observatory, Kitt Peak-Spacewatch MPS 147181
2005 10 31.22905 02 48 35.98 +23 40 06.9 20.8 V 691 – Steward Observatory, Kitt Peak-Spacewatch MPS 147181
2005 10 31.24391 02 48 34.95 +23 40 05.1 21.0 V 691 – Steward Observatory, Kitt Peak-Spacewatch MPS 147181
2005 10 31.24641 02 48 34.80 +23 40 04.7 20.9 V 691 – Steward Observatory, Kitt Peak-Spacewatch MPS 147181
2005 10 31.26125 02 48 33.79 +23 40 02.3 20.9 V 691 – Steward Observatory, Kitt Peak-Spacewatch MPS 147181
2005 10 31.26374 02 48 33.60 +23 40 02.1 20.7 V 691 – Steward Observatory, Kitt Peak-Spacewatch MPS 147181
2005 11 04.21620 02 44 11.61 +23 27 39.4 21.0 V 691 – Steward Observatory, Kitt Peak-Spacewatch MPS 149158
2005 11 04.24118 02 44 09.90 +23 27 34.4 20.7 V 691 – Steward Observatory, Kitt Peak-Spacewatch MPS 149158
2005 11 04.26618 02 44 08.21 +23 27 29.2 20.8 V 691 – Steward Observatory, Kitt Peak-Spacewatch MPS 149158
2007 02 09.35748 11 16 12.97 +08 09 37.7   691 – Steward Observatory, Kitt Peak-Spacewatch MPS 199398
2007 02 09.37516 11 16 12.23 +08 09 39.9   691 – Steward Observatory, Kitt Peak-Spacewatch MPS 199398
2007 02 09.39285 11 16 11.46 +08 09 42.1   691 – Steward Observatory, Kitt Peak-Spacewatch MPS 199398
2007 02 17.23659 11 10 05.83 +08 26 56.9   691 – Steward Observatory, Kitt Peak-Spacewatch MPS 200250
2007 02 17.25467 11 10 04.86 +08 26 59.8   691 – Steward Observatory, Kitt Peak-Spacewatch MPS 200250
2007 02 17.27275 11 10 03.85 +08 27 02.8   691 – Steward Observatory, Kitt Peak-Spacewatch MPS 200250
2007 02 21.24573 11 06 23.42 +08 37 39.9 20.0 V 691 – Steward Observatory, Kitt Peak-Spacewatch MPS 200250
2007 02 21.26383 11 06 22.32 +08 37 43.3 19.9 V 691 – Steward Observatory, Kitt Peak-Spacewatch MPS 200250
2007 02 21.28537 11 06 21.03 +08 37 46.9 19.9 V 691 – Steward Observatory, Kitt Peak-Spacewatch MPS 200250
2007 02 25.25969 11 02 22.70 +08 49 04.6 19.8 V 691 – Steward Observatory, Kitt Peak-Spacewatch MPS 201412
2007 02 25.28077 11 02 21.34 +08 49 08.3 19.7 V 691 – Steward Observatory, Kitt Peak-Spacewatch MPS 201412
2007 02 25.30185 11 02 19.99 +08 49 11.8 19.8 V 691 – Steward Observatory, Kitt Peak-Spacewatch MPS 201412
2007 03 08.32588 10 50 31.35 +09 20 00.6 19.3 R 644 – Palomar Mountain/NEAT MPS 206732
2007 03 08.34745 10 50 29.87 +09 20 04.2 19.0 R 644 – Palomar Mountain/NEAT MPS 206732
2007 03 08.36785 10 50 28.51 +09 20 06.8 19.3 R 644 – Palomar Mountain/NEAT MPS 206732
2007 03 09.23122 10 49 32.88 +09 22 16.9 19.1 V 703 – Catalina Sky Survey MPS 202811
2007 03 09.23934 10 49 32.30 +09 22 19.2 19.5 V 703 – Catalina Sky Survey MPS 202811
2007 03 09.24747 10 49 31.76 +09 22 19.3 19.3 V 703 – Catalina Sky Survey MPS 202811
2007 03 09.25553 10 49 31.26 +09 22 21.0 19.4 V 703 – Catalina Sky Survey MPS 202811
2007 03 09.31314 10 49 27.43 +09 22 30.2 19.0 R 644 – Palomar Mountain/NEAT MPS 202811
2007 03 09.33344 10 49 26.10 +09 22 33.1 19.3 R 644 – Palomar Mountain/NEAT MPS 202811
2007 03 09.35498 10 49 24.63 +09 22 36.5 18.9 R 644 – Palomar Mountain/NEAT MPS 202811
2007 03 10.25299 10 48 27.04 +09 24 48.2 18.9 R 644 – Palomar Mountain/NEAT MPS 204415
2007 03 10.27327 10 48 25.68 +09 24 51.2 19.0 R 644 – Palomar Mountain/NEAT MPS 204415
2007 03 10.29360 10 48 24.33 +09 24 54.3 19.0 R 644 – Palomar Mountain/NEAT MPS 204415
2007 03 11.22458 10 47 24.82 +09 27 06.6 19.5 V G96 – Mt. Lemmon Survey MPS 204415
2007 03 11.23300 10 47 24.25 +09 27 08.0 18.8 V G96 – Mt. Lemmon Survey MPS 204415
2007 03 11.24287 10 47 23.60 +09 27 09.4 19.4 V G96 – Mt. Lemmon Survey MPS 204415
2007 03 11.25119 10 47 23.06 +09 27 10.5 18.8 V G96 – Mt. Lemmon Survey MPS 204415
2007 04 07.21021 10 26 16.65 +09 42 20.6 19.5 V G96 – Mt. Lemmon Survey MPS 206732
2007 04 07.21758 10 26 16.47 +09 42 19.9 19.2 V G96 – Mt. Lemmon Survey MPS 206732
2007 04 07.22492 10 26 16.29 +09 42 19.3 19.4 V G96 – Mt. Lemmon Survey MPS 206732
2007 04 07.23227 10 26 16.11 +09 42 18.6 19.4 V G96 – Mt. Lemmon Survey MPS 206732
2007 04 15.19192 10 24 18.93 +09 24 53.1 20.2 V G96 – Mt. Lemmon Survey MPS 207906
2007 04 15.19866 10 24 18.86 +09 24 51.9 20.0 V G96 – Mt. Lemmon Survey MPS 207906
2007 04 15.20537 10 24 18.82 +09 24 50.5 20.2 V G96 – Mt. Lemmon Survey MPS 207906
2007 04 15.21229 10 24 18.72 +09 24 49.5 20.0 V G96 – Mt. Lemmon Survey MPS 207906
2007 05 11.20878 10 32 41.89 +07 20 20.6 20.1 V G96 – Mt. Lemmon Survey MPS 210036
2007 05 11.21662 10 32 42.25 +07 20 17.8 20.5 V G96 – Mt. Lemmon Survey MPS 210036
2007 05 11.22457 10 32 42.57 +07 20 15.2 19.8 V G96 – Mt. Lemmon Survey MPS 210036
2007 05 11.23236 10 32 42.90 +07 20 11.5 20.1 V G96 – Mt. Lemmon Survey MPS 210036
2008 08 21.40102 23 41 22.42 -03 42 27.7 20.4 V 691 – Steward Observatory, Kitt Peak-Spacewatch MPS 255095
